Year,Month,Day,Hour,Minute,Value (Times are PST for temperature in C)
2018,10,20,00,00,7.80
2018,10,20,00,01,7.80
2018,10,20,00,02,7.80
2018,10,20,00,03,7.80
2018,10,20,00,04,7.80
2018,10,20,00,05,7.80
2018,10,20,00,06,7.80
2018,10,20,00,07,7.70
2018,10,20,00,08,7.70
2018,10,20,00,09,7.70
2018,10,20,00,10,7.70
2018,10,20,00,11,7.70
2018,10,20,00,12,7.70
2018,10,20,00,13,7.70
2018,10,20,00,14,7.70
2018,10,20,00,15,7.70
2018,10,20,00,16,7.70
2018,10,20,00,17,7.70
2018,10,20,00,18,7.70
2018,10,20,00,19,7.70
2018,10,20,00,20,7.70
2018,10,20,00,21,7.70
2018,10,20,00,22,7.70
2018,10,20,00,23,7.70
2018,10,20,00,24,7.80
2018,10,20,00,25,7.80
2018,10,20,00,26,7.70
2018,10,20,00,27,7.70
2018,10,20,00,28,7.70
2018,10,20,00,29,7.70
2018,10,20,00,30,7.70
2018,10,20,00,31,7.70
2018,10,20,00,32,7.70
2018,10,20,00,33,7.70
2018,10,20,00,34,7.70
2018,10,20,00,35,7.70
2018,10,20,00,36,7.70
2018,10,20,00,37,7.70
2018,10,20,00,38,7.70
2018,10,20,00,39,7.70
2018,10,20,00,40,7.70
2018,10,20,00,41,7.70
2018,10,20,00,42,7.70
2018,10,20,00,43,7.70
2018,10,20,00,44,7.70
2018,10,20,00,45,7.70
2018,10,20,00,46,7.70
2018,10,20,00,47,7.70
2018,10,20,00,48,7.70
2018,10,20,00,49,7.60
2018,10,20,00,50,7.60
2018,10,20,00,51,7.60
2018,10,20,00,52,7.60
2018,10,20,00,53,7.60
2018,10,20,00,54,7.60
2018,10,20,00,55,7.60
2018,10,20,00,56,7.60
2018,10,20,00,57,7.60
2018,10,20,00,58,7.50
2018,10,20,00,59,7.50
2018,10,20,01,00,7.50
2018,10,20,01,01,7.50
2018,10,20,01,02,7.40
2018,10,20,01,03,7.40
2018,10,20,01,04,7.40
2018,10,20,01,05,7.40
2018,10,20,01,06,7.40
2018,10,20,01,07,7.40
2018,10,20,01,08,7.30
2018,10,20,01,09,7.30
2018,10,20,01,10,7.30
2018,10,20,01,11,7.30
2018,10,20,01,12,7.30
2018,10,20,01,13,7.30
2018,10,20,01,14,7.30
2018,10,20,01,15,7.20
2018,10,20,01,16,7.20
2018,10,20,01,17,7.20
2018,10,20,01,18,7.20
2018,10,20,01,19,7.20
2018,10,20,01,20,7.20
2018,10,20,01,21,7.20
2018,10,20,01,22,7.20
2018,10,20,01,23,7.20
2018,10,20,01,24,7.20
2018,10,20,01,25,7.20
2018,10,20,01,26,7.20
2018,10,20,01,27,7.20
2018,10,20,01,28,7.20
2018,10,20,01,29,7.10
2018,10,20,01,30,7.20
2018,10,20,01,31,7.10
2018,10,20,01,32,7.10
2018,10,20,01,33,7.10
2018,10,20,01,34,7.10
2018,10,20,01,35,7.10
2018,10,20,01,36,7.10
2018,10,20,01,37,7.10
2018,10,20,01,38,7.10
2018,10,20,01,39,7.10
2018,10,20,01,40,7.10
2018,10,20,01,41,7.10
2018,10,20,01,42,7.10
2018,10,20,01,43,7.10
2018,10,20,01,44,7.10
2018,10,20,01,45,7.10
2018,10,20,01,46,7.10
2018,10,20,01,47,7.00
2018,10,20,01,48,7.00
2018,10,20,01,49,7.00
2018,10,20,01,50,7.00
2018,10,20,01,51,7.00
2018,10,20,01,52,7.00
2018,10,20,01,53,7.00
2018,10,20,01,54,7.00
2018,10,20,01,55,7.00
2018,10,20,01,56,6.90
2018,10,20,01,57,6.90
2018,10,20,01,58,6.90
2018,10,20,01,59,6.90
2018,10,20,02,00,6.90
2018,10,20,02,01,6.90
2018,10,20,02,02,6.90
2018,10,20,02,03,6.90
2018,10,20,02,04,6.90
2018,10,20,02,05,6.90
2018,10,20,02,06,6.90
2018,10,20,02,07,6.90
2018,10,20,02,08,6.80
2018,10,20,02,09,6.80
2018,10,20,02,10,6.80
2018,10,20,02,11,6.80
2018,10,20,02,12,6.80
2018,10,20,02,13,6.80
2018,10,20,02,14,6.80
2018,10,20,02,15,6.80
2018,10,20,02,16,6.80
2018,10,20,02,17,6.70
2018,10,20,02,18,6.70
2018,10,20,02,19,6.70
2018,10,20,02,20,6.70
2018,10,20,02,21,6.70
2018,10,20,02,22,6.70
2018,10,20,02,23,6.70
2018,10,20,02,24,6.70
2018,10,20,02,25,6.70
2018,10,20,02,26,6.70
2018,10,20,02,27,6.70
2018,10,20,02,28,6.70
2018,10,20,02,29,6.70
2018,10,20,02,30,6.60
2018,10,20,02,31,6.60
2018,10,20,02,32,6.60
2018,10,20,02,33,6.60
2018,10,20,02,34,6.60
2018,10,20,02,35,6.60
2018,10,20,02,36,6.60
2018,10,20,02,37,6.60
2018,10,20,02,38,6.60
2018,10,20,02,39,6.60
2018,10,20,02,40,6.60
2018,10,20,02,41,6.60
2018,10,20,02,42,6.60
2018,10,20,02,43,6.60
2018,10,20,02,44,6.50
2018,10,20,02,45,6.50
2018,10,20,02,46,6.50
2018,10,20,02,47,6.50
2018,10,20,02,48,6.50
2018,10,20,02,49,6.50
2018,10,20,02,50,6.50
2018,10,20,02,51,6.50
2018,10,20,02,52,6.50
2018,10,20,02,53,6.50
2018,10,20,02,54,6.50
2018,10,20,02,55,6.50
2018,10,20,02,56,6.50
2018,10,20,02,57,6.40
2018,10,20,02,58,6.40
2018,10,20,02,59,6.40
2018,10,20,03,00,6.40
2018,10,20,03,01,6.40
2018,10,20,03,02,6.40
2018,10,20,03,03,6.40
2018,10,20,03,04,6.40
2018,10,20,03,05,6.40
2018,10,20,03,06,6.30
2018,10,20,03,07,6.30
2018,10,20,03,08,6.30
2018,10,20,03,09,6.30
2018,10,20,03,10,6.30
2018,10,20,03,11,6.30
2018,10,20,03,12,6.30
2018,10,20,03,13,6.30
2018,10,20,03,14,6.30
2018,10,20,03,15,6.30
2018,10,20,03,16,6.30
2018,10,20,03,17,6.30
2018,10,20,03,18,6.30
2018,10,20,03,19,6.30
2018,10,20,03,20,6.30
2018,10,20,03,21,6.30
2018,10,20,03,22,6.30
2018,10,20,03,23,6.30
2018,10,20,03,24,6.30
2018,10,20,03,25,6.30
2018,10,20,03,26,6.30
2018,10,20,03,27,6.30
2018,10,20,03,28,6.30
2018,10,20,03,29,6.20
2018,10,20,03,30,6.20
2018,10,20,03,31,6.20
2018,10,20,03,32,6.20
2018,10,20,03,33,6.20
2018,10,20,03,34,6.20
2018,10,20,03,35,6.20
2018,10,20,03,36,6.20
2018,10,20,03,37,6.20
2018,10,20,03,38,6.20
2018,10,20,03,39,6.20
2018,10,20,03,40,6.20
2018,10,20,03,41,6.20
2018,10,20,03,42,6.20
2018,10,20,03,43,6.20
2018,10,20,03,44,6.10
2018,10,20,03,45,6.10
2018,10,20,03,46,6.10
2018,10,20,03,47,6.10
2018,10,20,03,48,6.10
2018,10,20,03,49,6.10
2018,10,20,03,50,6.10
2018,10,20,03,51,6.10
2018,10,20,03,52,6.10
2018,10,20,03,53,6.10
2018,10,20,03,54,6.10
2018,10,20,03,55,6.10
2018,10,20,03,56,6.10
2018,10,20,03,57,6.10
2018,10,20,03,58,6.10
2018,10,20,03,59,6.10
2018,10,20,04,00,6.10
2018,10,20,04,01,6.10
2018,10,20,04,02,6.10
2018,10,20,04,03,6.10
2018,10,20,04,04,6.10
2018,10,20,04,05,6.10
2018,10,20,04,06,6.20
2018,10,20,04,07,6.20
2018,10,20,04,08,6.20
2018,10,20,04,09,6.20
2018,10,20,04,10,6.20
2018,10,20,04,11,6.20
2018,10,20,04,12,6.20
2018,10,20,04,13,6.20
2018,10,20,04,14,6.20
2018,10,20,04,15,6.20
2018,10,20,04,16,6.20
2018,10,20,04,17,6.20
2018,10,20,04,18,6.30
2018,10,20,04,19,6.30
2018,10,20,04,20,6.30
2018,10,20,04,21,6.30
2018,10,20,04,22,6.30
2018,10,20,04,23,6.30
2018,10,20,04,24,6.30
2018,10,20,04,25,6.30
2018,10,20,04,26,6.30
2018,10,20,04,27,6.30
2018,10,20,04,28,6.30
2018,10,20,04,29,6.30
2018,10,20,04,30,6.30
2018,10,20,04,31,6.20
2018,10,20,04,32,6.20
2018,10,20,04,33,6.20
2018,10,20,04,34,6.20
2018,10,20,04,35,6.20
2018,10,20,04,36,6.20
2018,10,20,04,37,6.20
2018,10,20,04,38,6.20
2018,10,20,04,39,6.20
2018,10,20,04,40,6.20
2018,10,20,04,41,6.20
2018,10,20,04,42,6.20
2018,10,20,04,43,6.20
2018,10,20,04,44,6.20
2018,10,20,04,45,6.20
2018,10,20,04,46,6.20
2018,10,20,04,47,6.20
2018,10,20,04,48,6.20
2018,10,20,04,49,6.20
2018,10,20,04,50,6.10
2018,10,20,04,51,6.10
2018,10,20,04,52,6.10
2018,10,20,04,53,6.10
2018,10,20,04,54,6.10
2018,10,20,04,55,6.10
2018,10,20,04,56,6.10
2018,10,20,04,57,6.10
2018,10,20,04,58,6.10
2018,10,20,04,59,6.10
2018,10,20,05,00,6.10
2018,10,20,05,01,6.10
2018,10,20,05,02,6.10
2018,10,20,05,03,6.10
2018,10,20,05,04,6.10
2018,10,20,05,05,6.10
2018,10,20,05,06,6.10
2018,10,20,05,07,6.00
2018,10,20,05,08,6.00
2018,10,20,05,09,6.00
2018,10,20,05,10,6.00
2018,10,20,05,11,6.00
2018,10,20,05,12,6.00
2018,10,20,05,13,6.00
2018,10,20,05,14,6.00
2018,10,20,05,15,6.00
2018,10,20,05,16,5.90
2018,10,20,05,17,5.90
2018,10,20,05,18,5.90
2018,10,20,05,19,5.90
2018,10,20,05,20,5.90
2018,10,20,05,21,5.90
2018,10,20,05,22,5.90
2018,10,20,05,23,5.90
2018,10,20,05,24,5.90
2018,10,20,05,25,5.90
2018,10,20,05,26,5.90
2018,10,20,05,27,5.90
2018,10,20,05,28,5.90
2018,10,20,05,29,5.90
2018,10,20,05,30,5.90
2018,10,20,05,31,5.90
2018,10,20,05,32,5.90
2018,10,20,05,33,5.90
2018,10,20,05,34,5.90
2018,10,20,05,35,5.90
2018,10,20,05,36,5.90
2018,10,20,05,37,5.90
2018,10,20,05,38,5.90
2018,10,20,05,39,5.90
2018,10,20,05,40,5.90
2018,10,20,05,41,5.80
2018,10,20,05,42,5.80
2018,10,20,05,43,5.80
2018,10,20,05,44,5.80
2018,10,20,05,45,5.80
2018,10,20,05,46,5.80
2018,10,20,05,47,5.80
2018,10,20,05,48,5.80
2018,10,20,05,49,5.80
2018,10,20,05,50,5.80
2018,10,20,05,51,5.80
2018,10,20,05,52,5.80
2018,10,20,05,53,5.80
2018,10,20,05,54,5.70
2018,10,20,05,55,5.70
2018,10,20,05,56,5.70
2018,10,20,05,57,5.70
2018,10,20,05,58,5.70
2018,10,20,05,59,5.70
2018,10,20,06,00,5.70
2018,10,20,06,01,5.70
2018,10,20,06,02,5.70
2018,10,20,06,03,5.70
2018,10,20,06,04,5.70
2018,10,20,06,05,5.70
2018,10,20,06,06,5.70
2018,10,20,06,07,5.60
2018,10,20,06,08,5.60
2018,10,20,06,09,5.60
2018,10,20,06,10,5.60
2018,10,20,06,11,5.60
2018,10,20,06,12,5.60
2018,10,20,06,13,5.60
2018,10,20,06,14,5.60
2018,10,20,06,15,5.60
2018,10,20,06,16,5.60
2018,10,20,06,17,5.60
2018,10,20,06,18,5.60
2018,10,20,06,19,5.60
2018,10,20,06,20,5.60
2018,10,20,06,21,5.60
2018,10,20,06,22,5.50
2018,10,20,06,23,5.50
2018,10,20,06,24,5.50
2018,10,20,06,25,5.50
2018,10,20,06,26,5.50
2018,10,20,06,27,5.50
2018,10,20,06,28,5.50
2018,10,20,06,29,5.50
2018,10,20,06,30,5.50
2018,10,20,06,31,5.50
2018,10,20,06,32,5.40
2018,10,20,06,33,5.40
2018,10,20,06,34,5.40
2018,10,20,06,35,5.40
2018,10,20,06,36,5.40
2018,10,20,06,37,5.40
2018,10,20,06,38,5.40
2018,10,20,06,39,5.40
2018,10,20,06,40,5.40
2018,10,20,06,41,5.40
2018,10,20,06,42,5.40
2018,10,20,06,43,5.40
2018,10,20,06,44,5.40
2018,10,20,06,45,5.40
2018,10,20,06,46,5.40
2018,10,20,06,47,5.30
2018,10,20,06,48,5.30
2018,10,20,06,49,5.30
2018,10,20,06,50,5.30
2018,10,20,06,51,5.30
2018,10,20,06,52,5.30
2018,10,20,06,53,5.30
2018,10,20,06,54,5.30
2018,10,20,06,55,5.30
2018,10,20,06,56,5.30
2018,10,20,06,57,5.30
2018,10,20,06,58,5.30
2018,10,20,06,59,5.30
2018,10,20,07,00,5.30
2018,10,20,07,01,5.20
2018,10,20,07,02,5.20
2018,10,20,07,03,5.20
2018,10,20,07,04,5.20
2018,10,20,07,05,5.20
2018,10,20,07,06,5.20
2018,10,20,07,07,5.20
2018,10,20,07,08,5.20
2018,10,20,07,09,5.20
2018,10,20,07,10,5.20
2018,10,20,07,11,5.10
2018,10,20,07,12,5.10
2018,10,20,07,13,5.10
2018,10,20,07,14,5.10
2018,10,20,07,15,5.10
2018,10,20,07,16,5.10
2018,10,20,07,17,5.10
2018,10,20,07,18,5.10
2018,10,20,07,19,5.10
2018,10,20,07,20,5.00
2018,10,20,07,21,5.00
2018,10,20,07,22,5.00
2018,10,20,07,23,5.00
2018,10,20,07,24,5.00
2018,10,20,07,25,5.00
2018,10,20,07,26,5.00
2018,10,20,07,27,5.10
2018,10,20,07,28,5.10
2018,10,20,07,29,5.10
2018,10,20,07,30,5.10
2018,10,20,07,31,5.10
2018,10,20,07,32,5.10
2018,10,20,07,33,5.10
2018,10,20,07,34,5.10
2018,10,20,07,35,5.20
2018,10,20,07,36,5.20
2018,10,20,07,37,5.20
2018,10,20,07,38,5.20
2018,10,20,07,39,5.20
2018,10,20,07,40,5.20
2018,10,20,07,41,5.20
2018,10,20,07,42,5.30
2018,10,20,07,43,5.30
2018,10,20,07,44,5.30
2018,10,20,07,45,5.30
2018,10,20,07,46,5.30
2018,10,20,07,47,5.30
2018,10,20,07,48,5.30
2018,10,20,07,49,5.30
2018,10,20,07,50,5.30
2018,10,20,07,51,5.30
2018,10,20,07,52,5.30
2018,10,20,07,53,5.30
2018,10,20,07,54,5.30
2018,10,20,07,55,5.30
2018,10,20,07,56,5.30
2018,10,20,07,57,5.30
2018,10,20,07,58,5.30
2018,10,20,07,59,5.30
2018,10,20,08,00,5.30
2018,10,20,08,01,5.30
2018,10,20,08,02,5.30
2018,10,20,08,03,5.30
2018,10,20,08,04,5.30
2018,10,20,08,05,5.30
2018,10,20,08,06,5.30
2018,10,20,08,07,5.20
2018,10,20,08,08,5.30
2018,10,20,08,09,5.30
2018,10,20,08,10,5.30
2018,10,20,08,11,5.30
2018,10,20,08,12,5.30
2018,10,20,08,13,5.30
2018,10,20,08,14,5.30
2018,10,20,08,15,5.20
2018,10,20,08,16,5.30
2018,10,20,08,17,5.30
2018,10,20,08,18,5.20
2018,10,20,08,19,5.20
2018,10,20,08,20,5.20
2018,10,20,08,21,5.20
2018,10,20,08,22,5.20
2018,10,20,08,23,5.20
2018,10,20,08,24,5.20
2018,10,20,08,25,5.20
2018,10,20,08,26,5.20
2018,10,20,08,27,5.20
2018,10,20,08,28,5.20
2018,10,20,08,29,5.20
2018,10,20,08,30,5.20
2018,10,20,08,31,5.20
2018,10,20,08,32,5.30
2018,10,20,08,33,5.30
2018,10,20,08,34,5.30
2018,10,20,08,35,5.30
2018,10,20,08,36,5.30
2018,10,20,08,37,5.30
2018,10,20,08,38,5.40
2018,10,20,08,39,5.40
2018,10,20,08,40,5.40
2018,10,20,08,41,5.40
2018,10,20,08,42,5.50
2018,10,20,08,43,5.50
2018,10,20,08,44,5.60
2018,10,20,08,45,5.60
2018,10,20,08,46,5.70
2018,10,20,08,47,5.70
2018,10,20,08,48,5.80
2018,10,20,08,49,5.80
2018,10,20,08,50,5.80
2018,10,20,08,51,5.90
2018,10,20,08,52,5.90
2018,10,20,08,53,6.00
2018,10,20,08,54,6.00
2018,10,20,08,55,6.10
2018,10,20,08,56,6.10
2018,10,20,08,57,6.20
2018,10,20,08,58,6.20
2018,10,20,08,59,6.30
2018,10,20,09,00,6.30
2018,10,20,09,01,6.40
2018,10,20,09,02,6.40
2018,10,20,09,03,6.40
2018,10,20,09,04,6.40
2018,10,20,09,05,6.50
2018,10,20,09,06,6.50
2018,10,20,09,07,6.50
2018,10,20,09,08,6.60
2018,10,20,09,09,6.60
2018,10,20,09,10,6.60
2018,10,20,09,11,6.60
2018,10,20,09,12,6.60
2018,10,20,09,13,6.60
2018,10,20,09,14,6.60
2018,10,20,09,15,6.70
2018,10,20,09,16,6.60
2018,10,20,09,17,6.60
2018,10,20,09,18,6.60
2018,10,20,09,19,6.60
2018,10,20,09,20,6.60
2018,10,20,09,21,6.60
2018,10,20,09,22,6.60
2018,10,20,09,23,6.60
2018,10,20,09,24,6.60
2018,10,20,09,25,6.60
2018,10,20,09,26,6.60
2018,10,20,09,27,6.60
2018,10,20,09,28,6.60
2018,10,20,09,29,6.60
2018,10,20,09,30,6.60
2018,10,20,09,31,6.60
2018,10,20,09,32,6.60
2018,10,20,09,33,6.70
2018,10,20,09,34,6.70
2018,10,20,09,35,6.70
2018,10,20,09,36,6.70
2018,10,20,09,37,6.70
2018,10,20,09,38,6.70
2018,10,20,09,39,6.70
2018,10,20,09,40,6.70
2018,10,20,09,41,6.70
2018,10,20,09,42,6.70
2018,10,20,09,43,6.80
2018,10,20,09,44,6.80
2018,10,20,09,45,6.80
2018,10,20,09,46,6.80
2018,10,20,09,47,6.80
2018,10,20,09,48,6.80
2018,10,20,09,49,6.80
2018,10,20,09,50,6.80
2018,10,20,09,51,6.80
2018,10,20,09,52,6.90
2018,10,20,09,53,6.90
2018,10,20,09,54,6.90
2018,10,20,09,55,6.90
2018,10,20,09,56,6.90
2018,10,20,09,57,6.90
2018,10,20,09,58,7.00
2018,10,20,09,59,7.00
2018,10,20,10,00,7.00
2018,10,20,10,01,7.00
2018,10,20,10,02,7.10
2018,10,20,10,03,7.10
2018,10,20,10,04,7.10
2018,10,20,10,05,7.10
2018,10,20,10,06,7.10
2018,10,20,10,07,7.10
2018,10,20,10,08,7.10
2018,10,20,10,09,7.10
2018,10,20,10,10,7.20
2018,10,20,10,11,7.20
2018,10,20,10,12,7.20
2018,10,20,10,13,7.20
2018,10,20,10,14,7.20
2018,10,20,10,15,7.30
2018,10,20,10,16,7.30
2018,10,20,10,17,7.30
2018,10,20,10,18,7.30
2018,10,20,10,19,7.40
2018,10,20,10,20,7.40
2018,10,20,10,21,7.40
2018,10,20,10,22,7.40
2018,10,20,10,23,7.40
2018,10,20,10,24,7.40
2018,10,20,10,25,7.50
2018,10,20,10,26,7.50
2018,10,20,10,27,7.50
2018,10,20,10,28,7.60
2018,10,20,10,29,7.60
2018,10,20,10,30,7.60
2018,10,20,10,31,7.70
2018,10,20,10,32,7.70
2018,10,20,10,33,7.70
2018,10,20,10,34,7.70
2018,10,20,10,35,7.70
2018,10,20,10,36,7.80
2018,10,20,10,37,7.80
2018,10,20,10,38,7.80
2018,10,20,10,39,7.80
2018,10,20,10,40,7.90
2018,10,20,10,41,7.90
2018,10,20,10,42,7.90
2018,10,20,10,43,8.00
2018,10,20,10,44,8.10
2018,10,20,10,45,8.10
2018,10,20,10,46,8.10
2018,10,20,10,47,8.20
2018,10,20,10,48,8.20
2018,10,20,10,49,8.20
2018,10,20,10,50,8.30
2018,10,20,10,51,8.30
2018,10,20,10,52,8.30
2018,10,20,10,53,8.40
2018,10,20,10,54,8.40
2018,10,20,10,55,8.40
2018,10,20,10,56,8.50
2018,10,20,10,57,8.50
2018,10,20,10,58,8.50
2018,10,20,10,59,8.60
2018,10,20,11,00,8.60
2018,10,20,11,01,8.60
2018,10,20,11,02,8.60
2018,10,20,11,03,8.70
2018,10,20,11,04,8.70
2018,10,20,11,05,8.70
2018,10,20,11,06,8.70
2018,10,20,11,07,8.70
2018,10,20,11,08,8.70
2018,10,20,11,09,8.70
2018,10,20,11,10,8.80
2018,10,20,11,11,8.80
2018,10,20,11,12,8.90
2018,10,20,11,13,8.90
2018,10,20,11,14,9.00
2018,10,20,11,15,9.00
2018,10,20,11,16,9.00
2018,10,20,11,17,9.10
2018,10,20,11,18,9.10
2018,10,20,11,19,9.10
2018,10,20,11,20,9.10
2018,10,20,11,21,9.10
2018,10,20,11,22,9.10
2018,10,20,11,23,9.10
2018,10,20,11,24,9.20
2018,10,20,11,25,9.20
2018,10,20,11,26,9.20
2018,10,20,11,27,9.20
2018,10,20,11,28,9.30
2018,10,20,11,29,9.30
2018,10,20,11,30,9.30
2018,10,20,11,31,9.30
2018,10,20,11,32,9.30
2018,10,20,11,33,9.30
2018,10,20,11,34,9.30
2018,10,20,11,35,9.40
2018,10,20,11,36,9.40
2018,10,20,11,37,9.50
2018,10,20,11,38,9.60
2018,10,20,11,39,9.60
2018,10,20,11,40,9.70
2018,10,20,11,41,9.70
2018,10,20,11,42,9.80
2018,10,20,11,43,9.80
2018,10,20,11,44,9.80
2018,10,20,11,45,9.90
2018,10,20,11,46,9.90
2018,10,20,11,47,9.90
2018,10,20,11,48,9.90
2018,10,20,11,49,10.00
2018,10,20,11,50,10.00
2018,10,20,11,51,10.10
2018,10,20,11,52,10.10
2018,10,20,11,53,10.10
2018,10,20,11,54,10.10
2018,10,20,11,55,10.10
2018,10,20,11,56,10.20
2018,10,20,11,57,10.20
2018,10,20,11,58,10.20
2018,10,20,11,59,10.20
2018,10,20,12,00,10.20
2018,10,20,12,01,10.20
2018,10,20,12,02,10.20
2018,10,20,12,03,10.20
2018,10,20,12,04,10.30
2018,10,20,12,05,10.30
2018,10,20,12,06,10.30
2018,10,20,12,07,10.30
2018,10,20,12,08,10.30
2018,10,20,12,09,10.40
2018,10,20,12,10,10.40
2018,10,20,12,11,10.40
2018,10,20,12,12,10.40
2018,10,20,12,13,10.40
2018,10,20,12,14,10.40
2018,10,20,12,15,10.40
2018,10,20,12,16,10.40
2018,10,20,12,17,10.40
2018,10,20,12,18,10.40
2018,10,20,12,19,10.50
2018,10,20,12,20,10.50
2018,10,20,12,21,10.50
2018,10,20,12,22,10.60
2018,10,20,12,23,10.60
2018,10,20,12,24,10.60
2018,10,20,12,25,10.70
2018,10,20,12,26,10.70
2018,10,20,12,27,10.70
2018,10,20,12,28,10.70
2018,10,20,12,29,10.80
2018,10,20,12,30,10.80
2018,10,20,12,31,10.90
2018,10,20,12,32,10.90
2018,10,20,12,33,11.00
2018,10,20,12,34,11.00
2018,10,20,12,35,11.10
2018,10,20,12,36,11.10
2018,10,20,12,37,11.10
2018,10,20,12,38,11.20
2018,10,20,12,39,11.20
2018,10,20,12,40,11.20
2018,10,20,12,41,11.20
2018,10,20,12,42,11.30
2018,10,20,12,43,11.30
2018,10,20,12,44,11.30
2018,10,20,12,45,11.40
2018,10,20,12,46,11.50
2018,10,20,12,47,11.60
2018,10,20,12,48,11.60
2018,10,20,12,49,11.70
2018,10,20,12,50,11.70
2018,10,20,12,51,11.80
2018,10,20,12,52,11.80
2018,10,20,12,53,11.80
2018,10,20,12,54,11.80
2018,10,20,12,55,11.90
2018,10,20,12,56,11.90
2018,10,20,12,57,11.90
2018,10,20,12,58,11.90
2018,10,20,12,59,11.90
2018,10,20,13,00,12.00
2018,10,20,13,01,12.00
2018,10,20,13,02,12.10
2018,10,20,13,03,12.10
2018,10,20,13,04,12.10
2018,10,20,13,05,12.10
2018,10,20,13,06,12.20
2018,10,20,13,07,12.30
2018,10,20,13,08,12.30
2018,10,20,13,09,12.40
2018,10,20,13,10,12.40
2018,10,20,13,11,12.40
2018,10,20,13,12,12.40
2018,10,20,13,13,12.40
2018,10,20,13,14,12.40
2018,10,20,13,15,12.50
2018,10,20,13,16,12.50
2018,10,20,13,17,12.60
2018,10,20,13,18,12.60
2018,10,20,13,19,12.60
2018,10,20,13,20,12.70
2018,10,20,13,21,12.70
2018,10,20,13,22,12.80
2018,10,20,13,23,12.80
2018,10,20,13,24,12.80
2018,10,20,13,25,12.90
2018,10,20,13,26,13.00
2018,10,20,13,27,13.00
2018,10,20,13,28,13.10
2018,10,20,13,29,13.10
2018,10,20,13,30,13.10
2018,10,20,13,31,13.10
2018,10,20,13,32,13.10
2018,10,20,13,33,13.20
2018,10,20,13,34,13.20
2018,10,20,13,35,13.20
2018,10,20,13,36,13.20
2018,10,20,13,37,13.20
2018,10,20,13,38,13.30
2018,10,20,13,39,13.30
2018,10,20,13,40,13.30
2018,10,20,13,41,13.30
2018,10,20,13,42,13.40
2018,10,20,13,43,13.40
2018,10,20,13,44,13.50
2018,10,20,13,45,13.60
2018,10,20,13,46,13.60
2018,10,20,13,47,13.70
2018,10,20,13,48,13.70
2018,10,20,13,49,13.80
2018,10,20,13,50,13.90
2018,10,20,13,51,13.90
2018,10,20,13,52,14.00
2018,10,20,13,53,14.00
2018,10,20,13,54,14.10
2018,10,20,13,55,14.20
2018,10,20,13,56,14.30
2018,10,20,13,57,14.30
2018,10,20,13,58,14.30
2018,10,20,13,59,14.30
2018,10,20,14,00,14.30
2018,10,20,14,01,14.30
2018,10,20,14,02,14.30
2018,10,20,14,03,14.20
2018,10,20,14,04,14.20
2018,10,20,14,05,14.20
2018,10,20,14,06,14.20
2018,10,20,14,07,14.20
2018,10,20,14,08,14.20
2018,10,20,14,09,14.20
2018,10,20,14,10,14.30
2018,10,20,14,11,14.20
2018,10,20,14,12,14.20
2018,10,20,14,13,14.20
2018,10,20,14,14,14.30
2018,10,20,14,15,14.30
2018,10,20,14,16,14.30
2018,10,20,14,17,14.30
2018,10,20,14,18,14.30
2018,10,20,14,19,14.30
2018,10,20,14,20,14.30
2018,10,20,14,21,14.30
2018,10,20,14,22,14.30
2018,10,20,14,23,14.30
2018,10,20,14,24,14.30
2018,10,20,14,25,14.30
2018,10,20,14,26,14.20
2018,10,20,14,27,14.30
2018,10,20,14,28,14.30
2018,10,20,14,29,14.30
2018,10,20,14,30,14.30
2018,10,20,14,31,14.30
2018,10,20,14,32,14.40
2018,10,20,14,33,14.40
2018,10,20,14,34,14.40
2018,10,20,14,35,14.40
2018,10,20,14,36,14.40
2018,10,20,14,37,14.40
2018,10,20,14,38,14.40
2018,10,20,14,39,14.50
2018,10,20,14,40,14.50
2018,10,20,14,41,14.50
2018,10,20,14,42,14.60
2018,10,20,14,43,14.70
2018,10,20,14,44,14.70
2018,10,20,14,45,14.80
2018,10,20,14,46,14.80
2018,10,20,14,47,14.90
2018,10,20,14,48,14.90
2018,10,20,14,49,15.00
2018,10,20,14,50,15.10
2018,10,20,14,51,15.10
2018,10,20,14,52,15.20
2018,10,20,14,53,15.30
2018,10,20,14,54,15.40
2018,10,20,14,55,15.40
2018,10,20,14,56,15.50
2018,10,20,14,57,15.50
2018,10,20,14,58,15.60
2018,10,20,14,59,15.60
2018,10,20,15,00,15.60
2018,10,20,15,01,15.60
2018,10,20,15,02,15.60
2018,10,20,15,03,15.60
2018,10,20,15,04,15.60
2018,10,20,15,05,15.60
2018,10,20,15,06,15.60
2018,10,20,15,07,15.50
2018,10,20,15,08,15.50
2018,10,20,15,09,15.50
2018,10,20,15,10,15.50
2018,10,20,15,11,15.50
2018,10,20,15,12,15.60
2018,10,20,15,13,15.60
2018,10,20,15,14,15.60
2018,10,20,15,15,15.60
2018,10,20,15,16,15.60
2018,10,20,15,17,15.60
2018,10,20,15,18,15.70
2018,10,20,15,19,15.70
2018,10,20,15,20,15.70
2018,10,20,15,21,15.70
2018,10,20,15,22,15.70
2018,10,20,15,23,15.70
2018,10,20,15,24,15.80
2018,10,20,15,25,15.80
2018,10,20,15,26,15.80
2018,10,20,15,27,15.80
2018,10,20,15,28,15.80
2018,10,20,15,29,15.80
2018,10,20,15,30,15.80
2018,10,20,15,31,15.70
2018,10,20,15,32,15.70
2018,10,20,15,33,15.70
2018,10,20,15,34,15.70
2018,10,20,15,35,15.70
2018,10,20,15,36,15.70
2018,10,20,15,37,15.70
2018,10,20,15,38,15.80
2018,10,20,15,39,15.80
2018,10,20,15,40,15.80
2018,10,20,15,41,15.90
2018,10,20,15,42,15.90
2018,10,20,15,43,15.90
2018,10,20,15,44,16.00
2018,10,20,15,45,16.00
2018,10,20,15,46,16.10
2018,10,20,15,47,16.10
2018,10,20,15,48,16.10
2018,10,20,15,49,16.20
2018,10,20,15,50,16.20
2018,10,20,15,51,16.20
2018,10,20,15,52,16.20
2018,10,20,15,53,16.20
2018,10,20,15,54,16.20
2018,10,20,15,55,16.20
2018,10,20,15,56,16.20
2018,10,20,15,57,16.20
2018,10,20,15,58,16.20
2018,10,20,15,59,16.20
2018,10,20,16,00,16.20
2018,10,20,16,01,16.20
2018,10,20,16,02,16.20
2018,10,20,16,03,16.20
2018,10,20,16,04,16.20
2018,10,20,16,05,16.30
2018,10,20,16,06,16.30
2018,10,20,16,07,16.30
2018,10,20,16,08,16.30
2018,10,20,16,09,16.30
2018,10,20,16,10,16.30
2018,10,20,16,11,16.30
2018,10,20,16,12,16.30
2018,10,20,16,13,16.30
2018,10,20,16,14,16.30
2018,10,20,16,15,16.30
2018,10,20,16,16,16.30
2018,10,20,16,17,16.30
2018,10,20,16,18,16.30
2018,10,20,16,19,16.30
2018,10,20,16,20,16.20
2018,10,20,16,21,16.20
2018,10,20,16,22,16.20
2018,10,20,16,23,16.20
2018,10,20,16,24,16.20
2018,10,20,16,25,16.20
2018,10,20,16,26,16.20
2018,10,20,16,27,16.20
2018,10,20,16,28,16.20
2018,10,20,16,29,16.20
2018,10,20,16,30,16.20
2018,10,20,16,31,16.20
2018,10,20,16,32,16.20
2018,10,20,16,33,16.20
2018,10,20,16,34,16.10
2018,10,20,16,35,16.10
2018,10,20,16,36,16.10
2018,10,20,16,37,16.10
2018,10,20,16,38,16.20
2018,10,20,16,39,16.20
2018,10,20,16,40,16.20
2018,10,20,16,41,16.20
2018,10,20,16,42,16.20
2018,10,20,16,43,16.30
2018,10,20,16,44,16.30
2018,10,20,16,45,16.30
2018,10,20,16,46,16.30
2018,10,20,16,47,16.40
2018,10,20,16,48,16.40
2018,10,20,16,49,16.40
2018,10,20,16,50,16.40
2018,10,20,16,51,16.40
2018,10,20,16,52,16.40
2018,10,20,16,53,16.40
2018,10,20,16,54,16.40
2018,10,20,16,55,16.40
2018,10,20,16,56,16.40
2018,10,20,16,57,16.30
2018,10,20,16,58,16.30
2018,10,20,16,59,16.30
2018,10,20,17,00,16.30
2018,10,20,17,01,16.30
2018,10,20,17,02,16.30
2018,10,20,17,03,16.30
2018,10,20,17,04,16.30
2018,10,20,17,05,16.30
2018,10,20,17,06,16.30
2018,10,20,17,07,16.30
2018,10,20,17,08,16.30
2018,10,20,17,09,16.30
2018,10,20,17,10,16.30
2018,10,20,17,11,16.30
2018,10,20,17,12,16.30
2018,10,20,17,13,16.30
2018,10,20,17,14,16.30
2018,10,20,17,15,16.30
2018,10,20,17,16,16.30
2018,10,20,17,17,16.30
2018,10,20,17,18,16.30
2018,10,20,17,19,16.20
2018,10,20,17,20,16.20
2018,10,20,17,21,16.20
2018,10,20,17,22,16.20
2018,10,20,17,23,16.10
2018,10,20,17,24,16.10
2018,10,20,17,25,16.00
2018,10,20,17,26,16.00
2018,10,20,17,27,15.90
2018,10,20,17,28,15.90
2018,10,20,17,29,15.80
2018,10,20,17,30,15.80
2018,10,20,17,31,15.80
2018,10,20,17,32,15.80
2018,10,20,17,33,15.70
2018,10,20,17,34,15.70
2018,10,20,17,35,15.70
2018,10,20,17,36,15.60
2018,10,20,17,37,15.60
2018,10,20,17,38,15.60
2018,10,20,17,39,15.50
2018,10,20,17,40,15.50
2018,10,20,17,41,15.40
2018,10,20,17,42,15.40
2018,10,20,17,43,15.30
2018,10,20,17,44,15.30
2018,10,20,17,45,15.30
2018,10,20,17,46,15.20
2018,10,20,17,47,15.20
2018,10,20,17,48,15.10
2018,10,20,17,49,15.10
2018,10,20,17,50,15.10